User: anonymous   Login
Location: Albany
(35.0000°S, 118.0000°E)
Time: 19:21:35
(UTC-04:00)
Language:

Cosmos 2227 Rocket - Orbit

View from above orbital plane
View from above orbital plane
View from above satellite
View from above satellite

Ground track
Ground track

The orbit data is extracted from the following two-line orbital elements,

1 22285U 92093B   17115.85223298 -.00000277 +00000-0 -11860-3 0  9993
2 22285 071.0215 322.0677 0005722 228.4974 131.5658 14.15008560254859
Epoch (UTC): 25 April 2017 20:27:12
Eccentricity: 0.0005722
inclination: 71.0215°
perigee height: 838 km
apogee height: 846 km
right ascension of ascending node: 322.0677°
argument of perigee: 228.4974°
revolutions per day: 14.15008560
mean anomaly at epoch: 131.5658°
orbit number at epoch: 25485

The dashed part of the orbit path shows where the satellite is in the earth's shadow,  

DLR